Time,TemperatureF,DewpointF,PressureIn,WindDirection,WindDirectionDegrees,WindSpeedMPH,WindSpeedGustMPH,Humidity,HourlyPrecipIn,Conditions,Clouds,dailyrainin,SolarRadiationWatts/m^2,SoftwareType,DateUTC
2013-09-24 00:00:00,43.2,39.0,30.01,WNW,299,10.0,16.0,85,0.00,,,0.00,0,weatherlink.com 1.10,2013-09-24 04:00:00,
2013-09-24 00:15:00,43.4,39.0,30.00,WNW,293,11.0,16.0,84,0.00,,,0.00,0,weatherlink.com 1.10,2013-09-24 04:15:00,
2013-09-24 00:30:00,43.5,39.0,30.00,West,275,10.0,17.0,84,0.00,,,0.00,0,weatherlink.com 1.10,2013-09-24 04:30:00,
2013-09-24 00:45:00,43.6,39.0,30.00,WNW,290,16.0,17.0,84,0.00,,,0.00,0,weatherlink.com 1.10,2013-09-24 04:45:00,
2013-09-24 01:00:00,43.4,39.0,30.00,WNW,296,12.0,16.0,84,0.00,,,0.00,0,weatherlink.com 1.10,2013-09-24 05:00:00,
2013-09-24 01:15:00,43.5,39.0,29.99,WNW,288,15.0,16.0,84,0.00,,,0.00,0,weatherlink.com 1.10,2013-09-24 05:15:00,
2013-09-24 01:30:00,43.3,39.0,29.99,WNW,286,12.0,17.0,84,0.00,,,0.00,0,weatherlink.com 1.10,2013-09-24 05:30:00,
2013-09-24 01:45:00,43.3,39.0,29.99,NW,304,0.0,17.0,84,0.00,,,0.00,0,weatherlink.com 1.10,2013-09-24 05:45:00,
2013-09-24 02:00:00,43.3,39.0,29.99,WNW,292,12.0,16.0,83,0.00,,,0.00,0,weatherlink.com 1.10,2013-09-24 06:00:00,
2013-09-24 02:15:00,43.3,39.0,29.98,WNW,296,11.0,17.0,83,0.00,,,0.00,0,weatherlink.com 1.10,2013-09-24 06:15:00,
2013-09-24 02:30:00,43.0,38.0,29.98,WNW,296,8.0,15.0,83,0.00,,,0.00,0,weatherlink.com 1.10,2013-09-24 06:30:00,
2013-09-24 02:45:00,43.2,38.0,29.98,NW,314,14.0,17.0,82,0.00,,,0.00,0,weatherlink.com 1.10,2013-09-24 06:45:00,
2013-09-24 03:00:00,42.9,38.0,29.97,WNW,290,12.0,17.0,83,0.00,,,0.00,0,weatherlink.com 1.10,2013-09-24 07:00:00,
2013-09-24 03:15:00,42.6,38.0,29.97,NW,312,6.0,17.0,83,0.00,,,0.00,0,weatherlink.com 1.10,2013-09-24 07:15:00,
2013-09-24 03:30:00,42.8,38.0,29.97,WNW,284,6.0,17.0,83,0.00,,,0.00,0,weatherlink.com 1.10,2013-09-24 07:30:00,
2013-09-24 03:45:00,42.8,38.0,29.96,NW,305,14.0,17.0,83,0.00,,,0.00,0,weatherlink.com 1.10,2013-09-24 07:45:00,
2013-09-24 04:00:00,42.7,38.0,29.96,WNW,290,10.0,17.0,83,0.00,,,0.00,0,weatherlink.com 1.10,2013-09-24 08:00:00,
2013-09-24 04:15:00,42.5,38.0,29.96,West,262,12.0,17.0,83,0.00,,,0.00,0,weatherlink.com 1.10,2013-09-24 08:15:00,
2013-09-24 04:30:00,42.3,38.0,29.95,West,273,8.0,18.0,83,0.00,,,0.00,0,weatherlink.com 1.10,2013-09-24 08:30:00,
2013-09-24 04:45:00,42.0,38.0,29.96,West,281,14.0,17.0,84,0.00,,,0.00,0,weatherlink.com 1.10,2013-09-24 08:45:00,
2013-09-24 05:00:00,41.9,37.0,29.96,WNW,291,12.0,15.0,83,0.00,,,0.00,0,weatherlink.com 1.10,2013-09-24 09:00:00,
2013-09-24 05:15:00,41.3,37.0,29.96,WNW,287,11.0,13.0,85,0.00,,,0.00,0,weatherlink.com 1.10,2013-09-24 09:15:00,
2013-09-24 05:30:00,41.5,37.0,29.96,WNW,287,6.0,16.0,83,0.00,,,0.00,0,weatherlink.com 1.10,2013-09-24 09:30:00,
2013-09-24 05:45:00,41.2,37.0,29.96,WNW,284,9.0,15.0,84,0.00,,,0.00,0,weatherlink.com 1.10,2013-09-24 09:45:00,
2013-09-24 06:00:00,41.1,37.0,29.96,WNW,287,12.0,16.0,84,0.00,,,0.00,0,weatherlink.com 1.10,2013-09-24 10:00:00,
2013-09-24 06:15:00,41.1,37.0,29.96,WNW,288,13.0,17.0,84,0.00,,,0.00,0,weatherlink.com 1.10,2013-09-24 10:15:00,
2013-09-24 06:30:00,41.1,37.0,29.95,WNW,300,7.0,18.0,85,0.00,,,0.00,0,weatherlink.com 1.10,2013-09-24 10:30:00,
2013-09-24 06:45:00,41.3,37.0,29.95,WNW,283,14.0,18.0,84,0.00,,,0.00,11,weatherlink.com 1.10,2013-09-24 10:45:00,
2013-09-24 07:00:00,41.2,37.0,29.95,WNW,294,13.0,18.0,85,0.00,,,0.00,16,weatherlink.com 1.10,2013-09-24 11:00:00,
2013-09-24 07:16:00,41.4,37.0,29.95,WNW,298,15.0,17.0,84,0.00,,,0.00,19,weatherlink.com 1.10,2013-09-24 11:16:00,
2013-09-24 07:31:00,41.6,37.0,29.95,NW,304,11.0,17.0,84,0.00,,,0.00,25,weatherlink.com 1.10,2013-09-24 11:31:00,
2013-09-24 07:46:00,42.0,38.0,29.95,WNW,300,13.0,17.0,84,0.00,,,0.00,162,weatherlink.com 1.10,2013-09-24 11:46:00,
2013-09-24 08:01:00,42.4,38.0,29.94,WSW,256,13.0,17.0,83,0.00,,,0.00,209,weatherlink.com 1.10,2013-09-24 12:01:00,
2013-09-24 08:16:00,42.8,38.0,29.94,WNW,286,16.0,18.0,83,0.00,,,0.00,255,weatherlink.com 1.10,2013-09-24 12:16:00,
2013-09-24 08:31:00,43.1,38.0,29.93,WNW,290,15.0,18.0,81,0.00,,,0.00,302,weatherlink.com 1.10,2013-09-24 12:31:00,
2013-09-24 08:46:00,43.5,38.0,29.93,WNW,286,13.0,18.0,81,0.00,,,0.00,353,weatherlink.com 1.10,2013-09-24 12:46:00,
2013-09-24 09:01:00,44.0,38.0,29.94,WNW,287,16.0,18.0,80,0.00,,,0.00,401,weatherlink.com 1.10,2013-09-24 13:01:00,
2013-09-24 09:16:00,44.3,38.0,29.94,West,276,14.0,18.0,79,0.00,,,0.00,504,weatherlink.com 1.10,2013-09-24 13:16:00,
2013-09-24 09:31:00,44.9,39.0,29.93,WSW,257,14.0,17.0,79,0.00,,,0.00,410,weatherlink.com 1.10,2013-09-24 13:31:00,
2013-09-24 09:46:00,45.1,39.0,29.93,West,274,14.0,17.0,78,0.00,,,0.00,605,weatherlink.com 1.10,2013-09-24 13:46:00,
2013-09-24 10:01:00,45.6,39.0,29.91,WSW,256,17.0,18.0,78,0.00,,,0.00,559,weatherlink.com 1.10,2013-09-24 14:01:00,
2013-09-24 10:16:00,45.6,38.0,29.91,WNW,298,17.0,18.0,76,0.01,,,0.01,578,weatherlink.com 1.10,2013-09-24 14:16:00,
2013-09-24 10:31:00,46.3,38.0,29.92,WNW,301,17.0,18.0,74,0.01,,,0.01,612,weatherlink.com 1.10,2013-09-24 14:31:00,
2013-09-24 10:46:00,46.9,39.0,29.94,NW,305,11.0,17.0,74,0.01,,,0.01,635,weatherlink.com 1.10,2013-09-24 14:46:00,
2013-09-24 11:01:00,48.4,40.0,29.93,WNW,300,10.0,17.0,72,0.01,,,0.01,719,weatherlink.com 1.10,2013-09-24 15:01:00,
2013-09-24 11:16:00,48.2,40.0,29.92,WSW,254,10.0,17.0,72,0.00,,,0.01,571,weatherlink.com 1.10,2013-09-24 15:16:00,
2013-09-24 11:31:00,48.2,40.0,29.92,West,280,11.0,17.0,72,0.00,,,0.01,703,weatherlink.com 1.10,2013-09-24 15:31:00,
2013-09-24 11:46:00,49.1,39.0,29.91,NW,307,14.0,16.0,69,0.00,,,0.01,712,weatherlink.com 1.10,2013-09-24 15:46:00,
2013-09-24 12:01:00,49.4,39.0,29.92,NW,325,15.0,17.0,67,0.00,,,0.01,721,weatherlink.com 1.10,2013-09-24 16:01:00,
2013-09-24 12:17:00,51.0,40.0,29.92,WNW,297,11.0,17.0,66,0.00,,,0.01,726,weatherlink.com 1.10,2013-09-24 16:17:00,
2013-09-24 12:32:00,51.2,39.0,29.91,NNW,329,0.0,17.0,64,0.00,,,0.01,728,weatherlink.com 1.10,2013-09-24 16:32:00,
2013-09-24 12:47:00,51.2,40.0,29.91,WNW,292,14.0,17.0,65,0.00,,,0.01,728,weatherlink.com 1.10,2013-09-24 16:47:00,
2013-09-24 13:02:00,51.8,39.0,29.90,WNW,290,12.0,17.0,62,0.00,,,0.01,766,weatherlink.com 1.10,2013-09-24 17:02:00,
2013-09-24 13:17:00,51.8,39.0,29.89,NW,322,11.0,17.0,63,0.00,,,0.01,823,weatherlink.com 1.10,2013-09-24 17:17:00,
2013-09-24 13:32:00,52.5,39.0,29.89,WNW,288,10.0,17.0,61,0.00,,,0.01,707,weatherlink.com 1.10,2013-09-24 17:32:00,
2013-09-24 13:47:00,53.6,41.0,29.89,WNW,301,6.0,16.0,62,0.00,,,0.01,703,weatherlink.com 1.10,2013-09-24 17:47:00,
2013-09-24 14:02:00,53.9,41.0,29.89,WNW,298,10.0,17.0,61,0.00,,,0.01,684,weatherlink.com 1.10,2013-09-24 18:02:00,
2013-09-24 14:17:00,53.5,41.0,29.89,WNW,300,17.0,17.0,63,0.00,,,0.01,663,weatherlink.com 1.10,2013-09-24 18:17:00,
2013-09-24 14:32:00,54.4,42.0,29.88,NW,304,16.0,18.0,63,0.00,,,0.01,642,weatherlink.com 1.10,2013-09-24 18:32:00,
2013-09-24 14:47:00,55.0,42.0,29.89,NW,304,16.0,17.0,62,0.00,,,0.01,810,weatherlink.com 1.10,2013-09-24 18:47:00,
2013-09-24 15:03:00,54.9,42.0,29.89,NW,316,9.0,17.0,62,0.00,,,0.01,696,weatherlink.com 1.10,2013-09-24 19:03:00,
2013-09-24 15:17:00,54.7,43.0,29.90,North,350,4.0,18.0,64,0.00,,,0.01,156,weatherlink.com 1.10,2013-09-24 19:17:00,
2013-09-24 15:32:00,53.3,42.0,29.89,WNW,283,10.0,16.0,66,0.00,,,0.01,197,weatherlink.com 1.10,2013-09-24 19:32:00,
2013-09-24 15:47:00,53.8,43.0,29.91,NNW,346,0.0,14.0,68,0.00,,,0.01,111,weatherlink.com 1.10,2013-09-24 19:47:00,
2013-09-24 16:02:00,52.6,42.0,29.91,NNW,344,7.0,17.0,68,0.00,,,0.01,60,weatherlink.com 1.10,2013-09-24 20:02:00,
2013-09-24 16:17:00,52.1,43.0,29.92,North,355,9.0,16.0,70,0.00,,,0.01,51,weatherlink.com 1.10,2013-09-24 20:17:00,
2013-09-24 16:32:00,51.7,43.0,29.91,North,5,15.0,17.0,71,0.00,,,0.01,77,weatherlink.com 1.10,2013-09-24 20:32:00,
2013-09-24 16:47:00,51.5,42.0,29.91,WNW,289,4.0,17.0,71,0.00,,,0.01,83,weatherlink.com 1.10,2013-09-24 20:47:00,
2013-09-24 17:02:00,51.2,42.0,29.91,NW,320,12.0,18.0,71,0.00,,,0.01,95,weatherlink.com 1.10,2013-09-24 21:02:00,
2013-09-24 17:32:00,51.4,42.0,29.93,NNW,342,4.0,17.0,71,0.00,,,0.01,26,weatherlink.com 1.10,2013-09-24 21:32:00,
2013-09-24 17:47:00,50.6,42.0,29.93,NW,318,11.0,17.0,73,0.00,,,0.01,32,weatherlink.com 1.10,2013-09-24 21:47:00,
2013-09-24 18:02:00,50.4,42.0,29.93,NW,312,7.0,18.0,74,0.00,,,0.01,56,weatherlink.com 1.10,2013-09-24 22:02:00,
2013-09-24 18:17:00,50.1,42.0,29.94,NW,325,8.0,17.0,75,0.00,,,0.01,16,weatherlink.com 1.10,2013-09-24 22:17:00,
2013-09-24 18:32:00,49.7,42.0,29.94,NNW,333,11.0,17.0,76,0.00,,,0.01,0,weatherlink.com 1.10,2013-09-24 22:32:00,
2013-09-24 18:47:00,49.6,43.0,29.94,NW,321,6.0,17.0,77,0.00,,,0.01,0,weatherlink.com 1.10,2013-09-24 22:47:00,
2013-09-24 19:02:00,49.4,43.0,29.95,North,349,1.0,13.0,78,0.00,,,0.01,0,weatherlink.com 1.10,2013-09-24 23:02:00,
2013-09-24 19:17:00,49.4,42.0,29.95,NW,309,11.0,12.0,77,0.00,,,0.01,0,weatherlink.com 1.10,2013-09-24 23:17:00,
2013-09-24 19:32:00,49.4,42.0,29.95,NNW,330,9.0,16.0,77,0.00,,,0.01,0,weatherlink.com 1.10,2013-09-24 23:32:00,
2013-09-24 19:47:00,49.3,42.0,29.95,NW,312,10.0,16.0,76,0.00,,,0.01,0,weatherlink.com 1.10,2013-09-24 23:47:00,
2013-09-24 20:02:00,49.2,43.0,29.95,NW,321,14.0,16.0,78,0.00,,,0.01,0,weatherlink.com 1.10,2013-09-25 00:02:00,
2013-09-24 20:17:00,49.2,42.0,29.95,NNW,343,8.0,13.0,77,0.00,,,0.01,0,weatherlink.com 1.10,2013-09-25 00:17:00,
2013-09-24 20:32:00,49.2,43.0,29.95,North,355,0.0,12.0,78,0.00,,,0.01,0,weatherlink.com 1.10,2013-09-25 00:32:00,
2013-09-24 20:47:00,49.2,43.0,29.95,NW,307,6.0,12.0,78,0.00,,,0.01,0,weatherlink.com 1.10,2013-09-25 00:47:00,
2013-09-24 21:03:00,48.8,42.0,29.94,WNW,291,3.0,11.0,78,0.00,,,0.01,0,weatherlink.com 1.10,2013-09-25 01:03:00,
2013-09-24 21:17:00,48.7,42.0,29.94,NW,309,9.0,12.0,79,0.00,,,0.01,0,weatherlink.com 1.10,2013-09-25 01:17:00,
2013-09-24 21:32:00,48.5,43.0,29.94,WNW,295,0.0,9.0,80,0.00,,,0.01,0,weatherlink.com 1.10,2013-09-25 01:32:00,
2013-09-24 21:47:00,48.4,43.0,29.94,WNW,302,7.0,14.0,80,0.00,,,0.01,0,weatherlink.com 1.10,2013-09-25 01:47:00,
2013-09-24 22:02:00,48.5,43.0,29.94,WNW,288,0.0,0.0,80,0.00,,,0.01,0,weatherlink.com 1.10,2013-09-25 02:02:00,
2013-09-24 22:17:00,48.6,43.0,29.94,WNW,292,0.0,9.0,80,0.00,,,0.01,0,weatherlink.com 1.10,2013-09-25 02:17:00,
2013-09-24 22:32:00,48.7,43.0,29.94,WNW,290,0.0,11.0,80,0.00,,,0.01,0,weatherlink.com 1.10,2013-09-25 02:32:00,
2013-09-24 22:47:00,48.2,43.0,29.94,WNW,300,3.0,9.0,81,0.00,,,0.01,0,weatherlink.com 1.10,2013-09-25 02:47:00,
2013-09-24 23:02:00,47.9,43.0,29.94,WNW,286,7.0,8.0,82,0.00,,,0.01,0,weatherlink.com 1.10,2013-09-25 03:02:00,
2013-09-24 23:17:00,47.9,43.0,29.93,WNW,285,8.0,11.0,82,0.00,,,0.01,0,weatherlink.com 1.10,2013-09-25 03:17:00,
2013-09-24 23:32:00,48.3,42.0,29.93,WNW,292,4.0,13.0,80,0.00,,,0.01,0,weatherlink.com 1.10,2013-09-25 03:32:00,
2013-09-24 23:47:00,47.8,43.0,29.94,West,275,4.0,10.0,82,0.00,,,0.01,0,weatherlink.com 1.10,2013-09-25 03:47:00,